LOT2NU EPWA-EPKK

Flight info

Callsign LOT2NU
Flight time 0h 29m
Altitude 22000
Route EVINA DCT KUKAM
Aircraft B738/M-SDE2E3FGHIJ1RWY/LB1

Departure

Time 2026-04-30 14:23
Airport Warsaw Chopin Airport (EPWA)

Arrival

Time 2026-04-30 14:53
Airport Kraków John Paul II International Airport (EPKK)
Time Latitude Longitude Altitude Speed Heading
2026-04-30 13:57 52.16955 20.97182 334 ft 0 kts 68°
2026-04-30 14:08 52.16950 20.97161 334 ft 2 kts 68°
2026-04-30 14:09 52.16944 20.97136 333 ft 2 kts 69°
2026-04-30 14:09 52.16938 20.97111 335 ft 2 kts 70°
2026-04-30 14:09 52.16928 20.97059 336 ft 2 kts 85°
2026-04-30 14:10 52.16932 20.97036 334 ft 1 kts 153°
2026-04-30 14:10 52.16934 20.97035 334 ft 0 kts 152°
2026-04-30 14:14 52.16928 20.97041 335 ft 5 kts 151°
2026-04-30 14:14 52.16880 20.97083 337 ft 7 kts 151°
2026-04-30 14:15 52.16833 20.97124 336 ft 8 kts 151°
2026-04-30 14:15 52.16799 20.97154 336 ft 4 kts 152°
2026-04-30 14:15 52.16777 20.97174 338 ft 4 kts 153°
2026-04-30 14:15 52.16753 20.97183 336 ft 3 kts 173°
2026-04-30 14:16 52.16728 20.97210 338 ft 6 kts 145°
2026-04-30 14:16 52.16674 20.97264 334 ft 11 kts 150°
2026-04-30 14:16 52.16606 20.97323 338 ft 11 kts 148°
2026-04-30 14:16 52.16553 20.97448 336 ft 18 kts 114°
2026-04-30 14:17 52.16496 20.97649 335 ft 20 kts 115°
2026-04-30 14:17 52.16440 20.97848 335 ft 19 kts 114°
2026-04-30 14:17 52.16386 20.98042 336 ft 18 kts 114°
2026-04-30 14:17 52.16348 20.98177 336 ft 10 kts 115°
2026-04-30 14:18 52.16318 20.98281 335 ft 10 kts 115°
2026-04-30 14:18 52.16272 20.98346 336 ft 9 kts 181°
2026-04-30 14:18 52.16256 20.98337 338 ft 0 kts 205°
2026-04-30 14:22 52.16242 20.98327 337 ft 7 kts 204°
2026-04-30 14:22 52.16186 20.98281 334 ft 10 kts 215°
2026-04-30 14:23 52.16268 20.97801 337 ft 83 kts 295°
2026-04-30 14:23 52.17180 20.94580 1212 ft 197 kts 296°
2026-04-30 14:24 52.18271 20.90494 3895 ft 199 kts 289°
2026-04-30 14:24 52.18252 20.88042 4343 ft 239 kts 257°
2026-04-30 14:25 52.17229 20.82406 5636 ft 268 kts 260°
2026-04-30 14:25 52.16441 20.76387 7345 ft 277 kts 261°
2026-04-30 14:26 52.15123 20.70367 8884 ft 296 kts 232°
2026-04-30 14:26 52.13486 20.68287 9692 ft 305 kts 205°
2026-04-30 14:26 52.09252 20.66860 10936 ft 326 kts 185°
2026-04-30 14:27 52.06951 20.66494 11468 ft 338 kts 184°
2026-04-30 14:27 52.04589 20.66145 12198 ft 343 kts 184°
2026-04-30 14:27 52.02198 20.65785 12978 ft 348 kts 184°
2026-04-30 14:28 51.97297 20.65004 14497 ft 360 kts 184°
2026-04-30 14:28 51.94805 20.64588 15252 ft 364 kts 184°
2026-04-30 14:28 51.92278 20.64158 16039 ft 367 kts 184°
2026-04-30 14:28 51.89725 20.63719 16807 ft 372 kts 183°
2026-04-30 14:29 51.84511 20.62828 18322 ft 381 kts 183°
2026-04-30 14:29 51.80082 20.62075 19438 ft 389 kts 183°
2026-04-30 14:30 51.70918 20.60500 21541 ft 405 kts 182°
2026-04-30 14:31 51.65223 20.59519 22422 ft 422 kts 182°
2026-04-30 14:31 51.59150 20.58481 22416 ft 453 kts 183°
2026-04-30 14:31 51.55966 20.57935 22413 ft 467 kts 183°
2026-04-30 14:32 51.49347 20.56797 22411 ft 489 kts 183°
2026-04-30 14:32 51.45929 20.56209 22401 ft 497 kts 183°
2026-04-30 14:32 51.42485 20.55615 22395 ft 496 kts 183°
2026-04-30 14:33 51.39128 20.55032 22372 ft 474 kts 183°
2026-04-30 14:33 51.32862 20.53943 22370 ft 434 kts 183°
2026-04-30 14:33 51.29920 20.53438 22369 ft 416 kts 183°
2026-04-30 14:34 51.27092 20.52956 22368 ft 401 kts 182°
2026-04-30 14:34 51.24343 20.52491 22371 ft 392 kts 182°
2026-04-30 14:34 51.21668 20.52039 22366 ft 381 kts 182°
2026-04-30 14:34 51.19110 20.51607 22369 ft 368 kts 182°
2026-04-30 14:35 51.14184 20.50775 22111 ft 351 kts 182°
2026-04-30 14:35 51.11702 20.50366 21122 ft 369 kts 182°
2026-04-30 14:35 51.09025 20.49930 19944 ft 393 kts 182°
2026-04-30 14:36 51.06282 20.49479 18853 ft 411 kts 183°
2026-04-30 14:36 51.03400 20.48999 17895 ft 420 kts 183°
2026-04-30 14:36 51.00470 20.48503 17491 ft 412 kts 184°
2026-04-30 14:36 50.97694 20.48029 17211 ft 402 kts 184°
2026-04-30 14:37 50.94945 20.47561 16931 ft 393 kts 183°
2026-04-30 14:37 50.92259 20.47107 16660 ft 384 kts 183°
2026-04-30 14:37 50.89625 20.46664 16391 ft 376 kts 183°
2026-04-30 14:37 50.87044 20.46232 16126 ft 369 kts 183°
2026-04-30 14:38 50.84513 20.45810 15869 ft 363 kts 183°
2026-04-30 14:38 50.82018 20.45395 15589 ft 358 kts 184°
2026-04-30 14:38 50.79556 20.44987 15248 ft 355 kts 183°
2026-04-30 14:38 50.77110 20.44582 14891 ft 352 kts 184°
2026-04-30 14:39 50.74680 20.44179 14540 ft 350 kts 184°
2026-04-30 14:39 50.72260 20.43779 14174 ft 349 kts 184°
2026-04-30 14:39 50.69853 20.43381 13778 ft 347 kts 184°
2026-04-30 14:40 50.65081 20.42592 13017 ft 343 kts 184°
2026-04-30 14:40 50.62718 20.42201 12653 ft 340 kts 184°
2026-04-30 14:40 50.60374 20.41814 12309 ft 338 kts 184°
2026-04-30 14:40 50.58041 20.41428 11941 ft 336 kts 184°
2026-04-30 14:41 50.55728 20.41044 11586 ft 333 kts 184°
2026-04-30 14:41 50.53434 20.40669 11251 ft 331 kts 184°
2026-04-30 14:41 50.51151 20.40296 10893 ft 329 kts 184°
2026-04-30 14:41 50.48887 20.39928 10655 ft 323 kts 184°
2026-04-30 14:42 50.46683 20.39564 10517 ft 315 kts 184°
2026-04-30 14:42 50.44533 20.39208 10381 ft 307 kts 184°
2026-04-30 14:42 50.42438 20.38864 10253 ft 299 kts 184°
2026-04-30 14:42 50.40346 20.38522 9815 ft 302 kts 185°
2026-04-30 14:43 50.38259 20.38183 9488 ft 302 kts 185°
2026-04-30 14:43 50.36173 20.37845 9172 ft 300 kts 185°
2026-04-30 14:43 50.34100 20.37510 8862 ft 299 kts 185°
2026-04-30 14:43 50.32034 20.37171 8562 ft 298 kts 185°
2026-04-30 14:44 50.29974 20.36829 8254 ft 297 kts 185°
2026-04-30 14:44 50.27925 20.36497 7966 ft 295 kts 185°
2026-04-30 14:44 50.25884 20.36166 7657 ft 294 kts 186°
2026-04-30 14:44 50.23861 20.35836 7376 ft 292 kts 185°
2026-04-30 14:45 50.21843 20.35514 7096 ft 290 kts 186°
2026-04-30 14:45 50.19861 20.35191 6972 ft 283 kts 186°
2026-04-30 14:45 50.17931 20.34833 6839 ft 276 kts 194°
2026-04-30 14:45 50.16254 20.33553 6718 ft 265 kts 222°
2026-04-30 14:46 50.15131 20.31332 6444 ft 260 kts 246°
2026-04-30 14:46 50.14595 20.28704 6204 ft 250 kts 261°
2026-04-30 14:46 50.14251 20.26080 5935 ft 244 kts 261°
2026-04-30 14:46 50.14030 20.24375 5783 ft 240 kts 261°
2026-04-30 14:47 50.13592 20.21019 5454 ft 233 kts 261°
2026-04-30 14:47 50.13270 20.18563 5294 ft 228 kts 261°
2026-04-30 14:47 50.12949 20.16169 5168 ft 222 kts 261°
2026-04-30 14:47 50.12638 20.13871 5014 ft 219 kts 261°
2026-04-30 14:48 50.12323 20.11552 4775 ft 219 kts 262°
2026-04-30 14:48 50.12009 20.09232 4553 ft 219 kts 261°
2026-04-30 14:48 50.11695 20.06930 4349 ft 214 kts 261°
2026-04-30 14:48 50.11390 20.04714 4115 ft 204 kts 261°
2026-04-30 14:49 50.11101 20.02597 3908 ft 195 kts 261°
2026-04-30 14:49 50.10822 20.00572 3691 ft 188 kts 261°
2026-04-30 14:49 50.10555 19.98595 3499 ft 185 kts 261°
2026-04-30 14:49 50.10298 19.96653 3305 ft 184 kts 262°
2026-04-30 14:50 50.09777 19.92853 2805 ft 169 kts 262°
2026-04-30 14:50 50.09535 19.91146 2612 ft 155 kts 261°
2026-04-30 14:51 50.09098 19.87971 2175 ft 146 kts 263°
2026-04-30 14:51 50.08881 19.86430 1979 ft 146 kts 260°
2026-04-30 14:51 50.08466 19.83474 1619 ft 139 kts 260°
2026-04-30 14:52 50.08249 19.82004 1410 ft 140 kts 259°
2026-04-30 14:52 50.07851 19.79055 807 ft 132 kts 261°
2026-04-30 14:52 50.07686 19.77839 796 ft 94 kts 258°
2026-04-30 14:53 50.07572 19.77034 801 ft 22 kts 258°
2026-04-30 14:53 50.07542 19.76885 801 ft 21 kts 236°
2026-04-30 14:54 50.07320 19.77060 799 ft 20 kts 77°
2026-04-30 14:54 50.07370 19.77406 799 ft 19 kts 78°
2026-04-30 14:55 50.07429 19.77829 799 ft 21 kts 78°
2026-04-30 14:55 50.07459 19.78046 799 ft 20 kts 78°
2026-04-30 14:55 50.07539 19.78619 799 ft 23 kts 78°
2026-04-30 14:56 50.07593 19.79014 799 ft 22 kts 76°
2026-04-30 14:56 50.07656 19.79460 799 ft 20 kts 78°
2026-04-30 14:57 50.07677 19.79610 799 ft 9 kts 77°
2026-04-30 14:57 50.07593 19.79718 799 ft 9 kts 166°
2026-04-30 14:58 50.07538 19.79715 799 ft 2 kts 231°
2026-04-30 14:58 50.07528 19.79675 799 ft 5 kts 255°